Regional Weather Roundup
Issued by NWS Binghamton, NY

Home | Current Version | Previous Version | Text Only | Print | Product List | Glossary On
Versions: 1 2 3 4 5 6 7 8 9 10 11 12 13 14 15 16 17 18 19 20 21 22 23 24 25 26 27 28 29 30 31 32 33 34 35 36 37 38 39 40 41 42 43 44 45 46 47 48 49 50
000
ASUS41 KBGM 221010
RWRBGM
RWRBGM
BINGHAMTON REGIONAL WEATHER ROUNDUP
NATIONAL WEATHER SERVICE BINGHAMTON NY
600 AM EDT MON SEP 22 2014

Note: "fair" indicates few or no clouds below 12,000 feet with no
significant weather and/or obstructions to visibility.

* = Station(s) that does not report precipitation, such as rain,
snow, etc, also no thunder or fog.

!NYZ009-015>018-022>025-036-037-044>046-055>057-062-221100
...CENTRAL NEW YORK...

CITY           SKY/WX    TMP DP  RH WIND       PRES   REMARKS
BINGHAMTON     CLOUDY    52  50  93 N9        29.79R
CORTLAND       DRIZZLE   50  50 100 NW3       29.82R
DANSVILLE      CLOUDY    50  47  89 NW13      29.89R
ELMIRA         CLOUDY    55  48  77 N10       29.83R
ITHACA         LGT RAIN  51  50  97 NW14G21   29.83R
HAMILTON       CLOUDY    52  48  87 NW7G16    29.78R
MONTICELLO     MOCLDY    55  52  88 W9        29.76R
NORWICH        CLOUDY    52  48  87 NW6       29.78R
ONEONTA        MOCLDY    52  50  93 W9        29.75R
PENN YAN       CLOUDY    50  49  96 NW15G25   29.83R
ROME           CLOUDY    51  49  92 W12       29.78R
SIDNEY         DRIZZLE   55  55 100 W6        29.77R
SYRACUSE       CLOUDY    52  48  86 NW15G21   29.80R
$$

!PAZ038>040-043-044-047-048-072-221100
...NORTHEAST PENNSYLVANIA...

CITY           SKY/WX    TMP DP  RH WIND       PRES   REMARKS
HAZLETON       CLOUDY    57  48  72 W8        29.84R
SCRANTON       CLEAR     57  52  83 SW8       29.80R
TOWANDA*       MOCLDY    55  54  94 W8        29.82R
$$
&&
KEY
WCI = WIND CHILL INDEX
VSB = VISIBILITY
HX  = HEAT INDEX
$$



USA.gov is the U.S. government's official web portal to all federal, state and local government web resources and services.